FW1746 Weather Reports


Display with metric or nautical units.
time (UTC)temp
F
wind
direction
speed
MPH
gust
MPH
rain 1hr
in
rain 24hr
in
rain mn
in
humidity
%
barometer
mb
20260903071618 52 48 3.0 4.0 0.00 0.02 0.00 84 1008.9
20260903070100 51 44 3.0 5.0 0.00 0.02 0.00 84 1008.9
20260903064546 51 45 3.0 6.0 0.00 0.02 0.00 85 1009.1
20260903063043 51 52 3.0 6.0 0.00 0.02 0.00 86 1009.2
20260903061542 50 48 3.0 5.0 0.00 0.02 0.00 86 1009.3
20260903060040 50 44 2.0 4.0 0.00 0.02 0.00 86 1009.6
20260903054543 50 271 1.0 4.0 0.00 0.02 0.00 87 1009.8
20260903053039 50 243 1.0 3.0 0.00 0.02 0.00 87 1009.8
20260903051538 49 246 0.0 2.0 0.00 0.02 0.00 87 1010.0
20260903050042 49 243 0.0 3.0 0.00 0.02 0.00 88 1010.0
20260903044539 49 244 0.0 2.0 0.00 0.02 0.00 88 1010.1
20260903043033 49 242 1.0 2.0 0.00 0.02 0.00 88 1010.1
20260903041531 49 243 0.0 1.0 0.00 0.02 0.00 87 1010.2
20260903040031 49 243 0.0 3.0 0.00 0.02 0.00 86 1010.2
20260903034528 48 241 1.0 4.0 0.00 0.02 0.00 86 1010.4
20260903033026 48 243 2.0 5.0 0.00 0.02 0.00 87 1010.6
20260903031523 48 244 2.0 5.0 0.00 0.02 0.00 87 1010.8
20260903030022 47 236 2.0 5.0 0.00 0.02 0.00 88 1010.9
20260903024521 47 240 2.0 7.0 0.00 0.02 0.00 89 1011.1
20260903023033 47 249 1.0 4.0 0.00 0.02 0.00 88 1011.2
20260903021522 47 245 2.0 7.0 0.00 0.02 0.00 88 1011.3
20260903020019 47 246 2.0 4.0 0.00 0.02 0.00 88 1011.2
20260903014522 47 221 0.0 3.0 0.00 0.02 0.00 88 1011.3
20260903013016 47 234 0.0 4.0 0.00 0.02 0.00 89 1011.3
20260903011521 47 227 0.0 3.0 0.00 0.02 0.00 89 1011.4
20260903010012 46 217 0.0 3.0 0.00 0.02 0.00 90 1011.5
20260903004509 46 219 0.0 2.0 0.00 0.03 0.00 89 1011.8
20260903003008 47 202 0.0 4.0 0.00 0.03 0.00 88 1011.9
20260903001510 47 201 0.0 2.0 0.00 0.03 0.00 88 1012.0
20260903000007 47 202 0.0 2.0 0.00 0.03 0.00 88 1012.0
20260902234504 48 201 0.0 1.0 0.00 0.06 0.00 87 1012.0
20260902233003 48 202 0.0 1.0 0.00 0.06 0.00 87 1012.3
20260902231600 48 200 0.0 1.0 0.00 0.06 0.00 86 1012.3
20260902230113 49 200 0.0 2.0 0.00 0.06 0.00 84 1012.4
20260902224611 49 227 0.0 2.0 0.00 0.06 0.00 83 1012.4
20260902223108 50 202 0.0 2.0 0.00 0.06 0.00 83 1012.5
20260902221556 50 212 2.0 5.0 0.00 0.06 0.00 84 1012.6
20260902220048 50 198 0.0 4.0 0.00 0.06 0.00 83 1012.6
20260902214612 51 186 0.0 2.0 0.00 0.06 0.06 82 1012.6
20260902213047 51 236 0.0 4.0 0.00 0.06 0.06 80 1012.7
20260902211551 52 220 0.0 5.0 0.00 0.06 0.06 79 1012.7
20260902210049 52 174 0.0 7.0 0.00 0.06 0.06 79 1012.7
20260902204545 52 188 1.0 9.0 0.00 0.09 0.06 79 1012.7
20260902203044 52 184 1.0 5.0 0.00 0.09 0.06 79 1012.7
20260902201556 53 212 1.0 6.0 0.00 0.09 0.06 78 1012.6
20260902200042 53 192 1.0 8.0 0.00 0.09 0.06 78 1012.6
20260902194548 53 203 2.0 9.0 0.00 0.09 0.06 77 1012.7
20260902193043 54 225 2.0 6.0 0.00 0.09 0.06 77 1012.6
20260902191542 54 225 3.0 8.0 0.00 0.09 0.06 77 1012.6
20260902190042 55 181 2.0 8.0 0.00 0.09 0.06 76 1012.5
20260902184540 55 182 1.0 6.0 0.00 0.09 0.06 75 1012.4
20260902183040 56 176 1.0 9.0 0.00 0.09 0.06 73 1012.3
20260902181540 56 165 3.0 11.0 0.00 0.09 0.06 70 1012.2
20260902180037 57 202 2.0 11.0 0.00 0.09 0.06 66 1012.1
20260902174545 58 200 2.0 10.0 0.00 0.09 0.06 66 1011.9
20260902173034 58 167 2.0 10.0 0.00 0.09 0.06 66 1011.8
20260902171535 59 173 3.0 13.0 0.00 0.09 0.06 66 1011.7
20260902170036 59 202 4.0 16.0 0.00 0.09 0.06 65 1011.7
20260902164542 59 203 2.0 12.0 0.00 0.09 0.06 66 1011.6
20260902163035 60 196 3.0 12.0 0.00 0.09 0.06 65 1011.5
20260902161536 60 178 4.0 11.0 0.00 0.09 0.06 65 1011.5
20260902160032 60 165 4.0 11.0 0.00 0.09 0.06 64 1011.6
20260902154631 61 236 2.0 11.0 0.00 0.09 0.06 62 1011.8
20260902153033 61 211 4.0 10.0 0.00 0.09 0.06 63 1011.7
20260902151531 62 180 4.0 14.0 0.00 0.09 0.06 62 1011.6
20260902150030 63 214 4.0 16.0 0.00 0.09 0.06 61 1011.6
20260902144532 63 138 6.0 16.0 0.00 0.09 0.06 61 1011.6
20260902143031 63 194 4.0 15.0 0.00 0.09 0.06 61 1011.7
20260902141534 63 175 3.0 11.0 0.00 0.09 0.06 62 1011.5
20260902140029 63 205 4.0 9.0 0.00 0.09 0.06 62 1011.4
20260902134531 62 211 3.0 12.0 0.00 0.09 0.06 65 1011.4
20260902133045 62 257 1.0 10.0 0.00 0.09 0.06 67 1011.4
20260902131528 64 186 4.0 13.0 0.00 0.09 0.06 62 1011.3
20260902130028 64 223 5.0 17.0 0.00 0.09 0.06 66 1011.5
20260902124523 63 177 2.0 10.0 0.00 0.09 0.06 71 1011.5
20260902123023 62 199 1.0 12.0 0.00 0.09 0.06 70 1011.5
20260902121521 64 193 3.0 10.0 0.00 0.09 0.06 72 1011.4
20260902120018 62 208 5.0 16.0 0.00 0.09 0.06 73 1011.4
20260902114519 61 188 3.0 10.0 0.00 0.09 0.06 78 1011.6
20260902113018 62 203 2.0 15.0 0.00 0.09 0.06 73 1011.6
20260902111517 63 198 5.0 11.0 0.00 0.09 0.06 69 1011.4
20260902110017 61 196 1.0 9.0 0.00 0.09 0.06 78 1011.4
20260902104515 61 217 1.0 9.0 0.00 0.09 0.06 78 1011.5
20260902103015 61 236 4.0 12.0 0.01 0.09 0.06 79 1011.5
20260902101511 61 242 4.0 11.0 0.01 0.09 0.06 81 1011.5
20260902100010 59 150 3.0 10.0 0.01 0.09 0.06 87 1011.5
20260902094509 58 166 2.0 14.0 0.01 0.09 0.06 88 1011.7
20260902093005 61 209 7.0 15.0 0.01 0.09 0.06 82 1011.6
20260902091502 61 201 3.0 9.0 0.01 0.08 0.06 84 1011.3
20260902090104 60 180 4.0 12.0 0.01 0.08 0.06 87 1011.3
20260902084604 58 158 1.0 6.0 0.01 0.08 0.06 90 1011.3
20260902083112 58 196 1.0 5.0 0.01 0.08 0.06 90 1011.4
20260902081554 58 192 2.0 11.0 0.00 0.07 0.05 87 1011.3
20260902080055 59 203 0.0 7.0 0.00 0.07 0.05 87 1011.2
20260902074548 58 203 2.0 6.0 0.00 0.07 0.05 89 1011.0
20260902073047 56 171 1.0 5.0 0.00 0.07 0.05 91 1011.0